EW7318 Cranston RI US current weather conditions

sailwx.info

Wind from 249

Air temperature 22.8° C
Dewpoint 17.2° C

Last reported at 2019-Aug-23 22:06 UTC.
Time now 2019-Aug-23 22:41 UTC

Location: N 41°47' W 071°29'.
View on Google Maps.

See reports from other nearby stations

  
Tides and Currents Weather Stations Pressure Air Temp Water Temp Dewpoint Dewpoint Depression Visibility Wind Speed Wind Dir Waves Ship Positions
date/time (UTC)wind fromknots sea level pressurealtimeterstation pressurevisibilityair tempwater tempwave heightnotes
2019-Aug-23 22:06 249 22.8
2019-Aug-23 22:01 225 22.8
2019-Aug-23 21:56 223 23.3
2019-Aug-23 21:50 020 0 gusting 3 23.3
2019-Aug-23 21:45 003 23.3
2019-Aug-23 21:40 249 23.3
2019-Aug-23 21:35 213 23.3
2019-Aug-23 21:30 032 23.3
2019-Aug-23 21:25 323 23.3
2019-Aug-23 21:20 275 0 gusting 1 23.3
2019-Aug-23 21:15 286 23.3
2019-Aug-23 21:10 253 23.9
2019-Aug-23 21:05 270 23.9
2019-Aug-23 21:00 270 23.9
2019-Aug-23 20:54 270 23.9
2019-Aug-23 20:49 239 23.9
2019-Aug-23 20:44 342 0 gusting 2 23.9
2019-Aug-23 20:39 118 23.9
2019-Aug-23 20:34 159 23.9
2019-Aug-23 20:29 155 23.9
2019-Aug-23 20:24 119 2 gusting 3 24.4
2019-Aug-23 20:19 330 1 gusting 3 24.4
2019-Aug-23 20:14 188 0 gusting 6 24.4
2019-Aug-23 20:09 346 1 gusting 6 24.4
2019-Aug-23 20:03 012 2 gusting 6 24.4
2019-Aug-23 19:58 314 1 gusting 3 23.9
2019-Aug-23 19:53 005 3 gusting 3 23.9
2019-Aug-23 19:48 241 23.9
2019-Aug-23 19:43 358 2 gusting 8 23.9
2019-Aug-23 19:38 244 0 gusting 3 24.4
2019-Aug-23 19:33 242 0 gusting 2 24.4
2019-Aug-23 19:28 025 0 gusting 6 24.4
2019-Aug-23 19:23 345 1 gusting 6 25.0
2019-Aug-23 19:18 234 25.0
2019-Aug-23 19:12 261 2 gusting 3 24.4
2019-Aug-23 19:07 190 24.4
2019-Aug-23 19:02 028 0 gusting 6 24.4
2019-Aug-23 18:57 259 0 gusting 6 24.4
2019-Aug-23 18:52 252 1 gusting 6 24.4
2019-Aug-23 18:47 231 1 gusting 3 24.4
2019-Aug-23 18:42 296 2 gusting 3 24.4
2019-Aug-23 18:37 234 1 gusting 3 24.4
2019-Aug-23 18:32 332 0 gusting 5 24.4
2019-Aug-23 18:27 334 1 gusting 6 24.4
2019-Aug-23 18:22 009 24.4
2019-Aug-23 18:16 274 0 gusting 6 24.4
2019-Aug-23 18:11 008 2 gusting 6 23.9
2019-Aug-23 18:06 006 23.9
2019-Aug-23 18:01 235 23.9
2019-Aug-23 17:56 144 0 gusting 6 23.3
2019-Aug-23 17:51 006 1 gusting 6 22.8
2019-Aug-23 17:46 057 0 gusting 3 22.8
2019-Aug-23 17:41 270 1 gusting 3 22.8
2019-Aug-23 17:36 294 0 gusting 3 22.2
2019-Aug-23 17:31 220 22.2
2019-Aug-23 17:25 080 22.8
2019-Aug-23 17:20 079 22.8
2019-Aug-23 17:15 265 22.8
2019-Aug-23 17:10 005 0 gusting 2 22.8
2019-Aug-23 17:05 271 0 gusting 3 22.8
2019-Aug-23 17:00 223 22.8
2019-Aug-23 16:55 001 0 gusting 2 22.8
2019-Aug-23 16:50 245 0 gusting 2 22.8
2019-Aug-23 16:45 207 22.8
2019-Aug-23 16:40 207 22.2
2019-Aug-23 16:34 176 22.2
2019-Aug-23 16:29 243 22.2
2019-Aug-23 16:24 288 0 gusting 3 21.7
2019-Aug-23 16:19 220 21.7
2019-Aug-23 16:14 198 21.7
2019-Aug-23 16:09 198 21.1
2019-Aug-23 16:04 197 0 gusting 1 21.1
2019-Aug-23 15:59 230 21.1
2019-Aug-23 15:54 193 0 gusting 1 21.1
2019-Aug-23 15:49 223 0 gusting 3 20.6
2019-Aug-23 15:44 316 20.6
2019-Aug-23 15:38 228 20.6
2019-Aug-23 15:33 208 20.6
2019-Aug-23 15:28 192 20.6
2019-Aug-23 15:23 218 20.6
2019-Aug-23 15:18 224 0 gusting 1 20.0
2019-Aug-23 15:13 253 20.0
2019-Aug-23 15:08 192 20.0
2019-Aug-23 15:03 192 20.0
2019-Aug-23 14:58 247 19.4
2019-Aug-23 14:53 231 0 gusting 0 19.4
2019-Aug-23 14:47 230 19.4
2019-Aug-23 14:42 230 19.4
2019-Aug-23 14:37 229 18.9
2019-Aug-23 14:32 229 18.9
2019-Aug-23 14:27 166 0 gusting 1 18.9
2019-Aug-23 14:22 194 18.9
2019-Aug-23 14:17 196 18.3
2019-Aug-23 14:12 236 18.3
2019-Aug-23 14:07 236 18.3
2019-Aug-23 14:02 236 18.3
2019-Aug-23 13:56 236 17.8
2019-Aug-23 13:51 236 17.8
2019-Aug-23 13:46 236 17.8
2019-Aug-23 13:41 236 17.8
2019-Aug-23 13:36 236 17.8
2019-Aug-23 13:31 236 17.8
2019-Aug-23 13:26 236 17.8
2019-Aug-23 13:21 236 17.8
2019-Aug-23 13:16 236 17.8
2019-Aug-23 13:11 236 17.8
2019-Aug-23 13:06 236 17.8
2019-Aug-23 13:00 236 17.8
2019-Aug-23 12:55 236 17.8
2019-Aug-23 12:50 214 17.8
2019-Aug-23 12:45 213 17.8
2019-Aug-23 12:40 213 17.8
2019-Aug-23 12:35 213 17.8
2019-Aug-23 12:30 214 17.8
2019-Aug-23 12:25 214 18.3
2019-Aug-23 12:20 214 18.3
2019-Aug-23 12:15 214 18.3
2019-Aug-23 12:09 214 18.9
2019-Aug-23 12:04 214 18.9
2019-Aug-23 11:59 214 18.9
2019-Aug-23 11:54 215 18.9
2019-Aug-23 11:49 277 18.9
2019-Aug-23 11:44 277 18.9
2019-Aug-23 11:39 276 18.9
2019-Aug-23 11:34 004 18.9
2019-Aug-23 11:29 342 18.9
2019-Aug-23 11:24 342 18.9
2019-Aug-23 11:19 343 18.9
2019-Aug-23 11:13 343 18.9
2019-Aug-23 11:08 343 18.9
2019-Aug-23 11:03 274 18.9
2019-Aug-23 10:58 274 18.9
2019-Aug-23 10:53 274 18.9
2019-Aug-23 10:48 274 18.9
2019-Aug-23 10:43 274 19.4
2019-Aug-23 10:38 274 19.4
2019-Aug-23 10:33 274 19.4
2019-Aug-23 10:28 275 19.4
2019-Aug-23 10:22 275 19.4
2019-Aug-23 10:17 282 0 gusting 2 19.4
2019-Aug-23 10:12 349 19.4
2019-Aug-23 10:07 268 20.0
2019-Aug-23 10:02 256 20.0
2019-Aug-23 09:57 256 20.0
2019-Aug-23 09:52 256 20.0
2019-Aug-23 09:47 256 20.0
2019-Aug-23 09:42 233 20.0
2019-Aug-23 09:37 359 0 gusting 1 20.6
2019-Aug-23 09:32 299 1 gusting 1 20.6
2019-Aug-23 09:26 211 20.6
2019-Aug-23 09:21 359 20.6
2019-Aug-23 09:16 231 21.1
2019-Aug-23 09:11 327 21.1
2019-Aug-23 09:06 343 21.1
2019-Aug-23 09:01 345 21.7
2019-Aug-23 08:56 018 21.7
2019-Aug-23 08:51 016 21.7
2019-Aug-23 08:46 247 21.7
2019-Aug-23 08:41 341 21.7
2019-Aug-23 08:35 356 1 gusting 3 21.7
2019-Aug-23 08:30 034 0 gusting 3 21.7
2019-Aug-23 08:25 307 21.7
2019-Aug-23 08:20 349 22.2
2019-Aug-23 08:15 268 22.2
2019-Aug-23 08:10 335 1 gusting 5 22.2
2019-Aug-23 08:05 309 22.2
2019-Aug-23 08:00 312 22.2
2019-Aug-23 07:55 043 2 gusting 6 22.2
2019-Aug-23 07:50 273 1 gusting 5 22.2
2019-Aug-23 07:44 310 0 gusting 6 22.2
2019-Aug-23 07:39 22.8
2019-Aug-23 07:34 291 1 gusting 7 22.8
2019-Aug-23 07:29 002 1 gusting 7 22.8
2019-Aug-23 07:24 198 22.8
2019-Aug-23 07:19 088 0 gusting 7 22.8
2019-Aug-23 07:09 326 1 gusting 6 22.8
2019-Aug-23 07:04 008 1 gusting 6 22.8
2019-Aug-23 06:59 115 0 gusting 6 22.8
2019-Aug-23 06:54 323 0 gusting 6 22.8
2019-Aug-23 06:48 023 0 gusting 3 22.8
2019-Aug-23 06:43 011 0 gusting 2 22.8
2019-Aug-23 06:38 331 0 gusting 3 22.8
2019-Aug-23 06:33 220 22.8
2019-Aug-23 06:28 034 1 gusting 5 22.8
2019-Aug-23 06:23 283 1 gusting 5 22.8
2019-Aug-23 06:18 329 1 gusting 6 22.8
2019-Aug-23 06:13 232 22.8
2019-Aug-23 06:08 355 0 gusting 3 22.8
2019-Aug-23 06:03 294 0 gusting 3 22.8
2019-Aug-23 05:57 308 0 gusting 3 22.8
2019-Aug-23 05:52 326 22.8
2019-Aug-23 05:47 231 22.8
2019-Aug-23 05:42 021 0 gusting 2 22.8
2019-Aug-23 05:37 036 0 gusting 2 22.8
2019-Aug-23 05:32 319 0 gusting 2 22.8
2019-Aug-23 05:27 259 22.8
2019-Aug-23 05:22 277 1 gusting 2 22.8
2019-Aug-23 05:17 248 22.8
2019-Aug-23 05:12 233 22.8
2019-Aug-23 05:07 115 23.3
2019-Aug-23 05:01 220 23.3
2019-Aug-23 04:56 208 23.3
2019-Aug-23 04:51 255 1 gusting 6 23.3
2019-Aug-23 04:46 309 0 gusting 6 23.3
2019-Aug-23 04:41 281 1 gusting 3 23.3
2019-Aug-23 04:36 247 23.9
2019-Aug-23 04:31 008 0 gusting 3 23.9
2019-Aug-23 04:26 337 1 gusting 3 23.9
2019-Aug-23 04:21 318 1 gusting 3 23.9
2019-Aug-23 04:16 245 23.9
2019-Aug-23 04:10 309 3 gusting 3 23.9
2019-Aug-23 04:05 268 23.9
2019-Aug-23 04:00 351 0 gusting 2 23.9
2019-Aug-23 03:55 335 24.4
2019-Aug-23 03:50 249 24.4
2019-Aug-23 03:45 286 24.4
2019-Aug-23 03:40 309 0 gusting 3 24.4
2019-Aug-23 03:35 242 24.4
2019-Aug-23 03:30 234 24.4
2019-Aug-23 03:25 359 1 gusting 2 24.4
2019-Aug-23 03:20 290 0 gusting 1 24.4
2019-Aug-23 03:14 228 0 gusting 1 24.4
2019-Aug-23 03:09 237 24.4
2019-Aug-23 03:04 263 25.0
2019-Aug-23 02:59 264 0 gusting 2 25.0
2019-Aug-23 02:54 005 1 gusting 2 25.0
2019-Aug-23 02:49 243 25.0
2019-Aug-23 02:44 308 0 gusting 3 25.0
2019-Aug-23 02:39 028 0 gusting 3 25.0
2019-Aug-23 02:34 235 25.0
2019-Aug-23 02:29 285 1 gusting 5 25.0
2019-Aug-23 02:23 245 25.0
2019-Aug-23 02:18 260 25.0
2019-Aug-23 02:13 293 0 gusting 2 25.0
2019-Aug-23 02:08 350 0 gusting 1 25.0
2019-Aug-23 02:03 013 25.0
2019-Aug-23 01:58 241 25.0
2019-Aug-23 01:53 241 25.6
2019-Aug-23 01:48 241 25.6
2019-Aug-23 01:43 241 25.6
2019-Aug-23 01:38 241 25.6
2019-Aug-23 01:32 240 25.6
2019-Aug-23 01:27 249 25.6
2019-Aug-23 01:22 231 0 gusting 3 25.6
2019-Aug-23 01:17 004 25.6
2019-Aug-23 01:12 207 25.6
2019-Aug-23 01:07 010 0 gusting 3 25.6
2019-Aug-23 01:02 331 25.6
2019-Aug-23 00:57 321 0 gusting 3 25.6
2019-Aug-23 00:52 234 25.6
2019-Aug-23 00:47 247 0 gusting 2 25.6
2019-Aug-23 00:42 239 25.6
2019-Aug-23 00:36 211 0 gusting 2 25.6
2019-Aug-23 00:31 178 25.6
2019-Aug-23 00:26 209 25.6
2019-Aug-23 00:21 222 0 gusting 1 25.6
2019-Aug-23 00:16 208 25.6
2019-Aug-23 00:11 200 25.6
2019-Aug-23 00:06 241 0 gusting 1 26.1
2019-Aug-23 00:01 290 26.1
2019-Aug-22 23:56 290 26.7
2019-Aug-22 23:51 290 27.2
2019-Aug-22 23:45 290 27.2
2019-Aug-22 23:40 290 27.8
2019-Aug-22 23:35 290 27.8
2019-Aug-22 23:30 289 27.8
2019-Aug-22 23:25 289 27.8
2019-Aug-22 23:20 290 27.8
2019-Aug-22 23:15 287 27.8
2019-Aug-22 23:10 284 28.3
2019-Aug-22 23:05 284 28.3
2019-Aug-22 23:00 284 28.3
2019-Aug-22 22:55 284 28.9
2019-Aug-22 22:49 284 28.9
2019-Aug-22 22:44 284 28.9
2019-Aug-22 22:39 273 28.9
2019-Aug-22 22:34 245 29.4
2019-Aug-22 22:29 266 29.4
2019-Aug-22 22:24 278 0 gusting 3 30.0
2019-Aug-22 22:19 255 0 gusting 3 30.0
2019-Aug-22 22:14 243 30.6
2019-Aug-22 22:09 010 0 gusting 3 30.6
2019-Aug-22 22:04 220 0 gusting 5 31.1
2019-Aug-22 21:58 271 1 gusting 5 31.1
2019-Aug-22 21:53 316 31.1
2019-Aug-22 21:48 257 0 gusting 3 31.1
2019-Aug-22 21:43 256 0 gusting 3 31.1
2019-Aug-22 21:38 200 31.1
2019-Aug-22 21:33 011 1 gusting 3 30.6
2019-Aug-22 21:28 287 0 gusting 5 30.6
2019-Aug-22 21:23 255 1 gusting 5 30.6
2019-Aug-22 21:18 291 0 gusting 5 30.6
2019-Aug-22 21:13 341 0 gusting 6 30.6
2019-Aug-22 21:07 342 2 gusting 7 31.1
2019-Aug-22 21:02 035 1 gusting 7 31.1
2019-Aug-22 20:57 348 2 gusting 12 31.1
2019-Aug-22 20:52 356 2 gusting 12 31.1
2019-Aug-22 20:47 018 1 gusting 8 31.1
2019-Aug-22 20:42 307 1 gusting 11 31.1
2019-Aug-22 20:37 349 0 gusting 11 31.1
2019-Aug-22 20:32 353 2 gusting 7 31.7
2019-Aug-22 20:27 286 2 gusting 7 31.7
2019-Aug-22 20:22 212 0 gusting 5 31.7
2019-Aug-22 20:17 272 0 gusting 6 31.7
2019-Aug-22 20:11 323 2 gusting 7 31.7
2019-Aug-22 20:06 300 1 gusting 7 31.7
2019-Aug-22 20:01 315 2 gusting 7 31.7
2019-Aug-22 19:56 237 1 gusting 7 31.7
2019-Aug-22 19:51 335 2 gusting 6 31.7
2019-Aug-22 19:46 195 1 gusting 6 31.7
2019-Aug-22 19:41 338 1 gusting 7 31.1
2019-Aug-22 19:36 329 5 gusting 7 31.1
2019-Aug-22 19:31 056 31.1
2019-Aug-22 19:26 358 5 gusting 11 31.1
2019-Aug-22 19:21 332 0 gusting 11 31.7
2019-Aug-22 19:15 359 5 gusting 6 31.7
2019-Aug-22 19:10 004 3 gusting 7 31.7
2019-Aug-22 19:05 261 2 gusting 7 32.2
2019-Aug-22 19:00 263 1 gusting 5 31.7
2019-Aug-22 18:55 005 0 gusting 5 31.7
2019-Aug-22 18:50 209 31.7
2019-Aug-22 18:45 279 3 gusting 5 31.7
2019-Aug-22 18:40 265 0 gusting 8 31.1
2019-Aug-22 18:35 221 4 gusting 8 31.1
2019-Aug-22 18:29 272 1 gusting 7 31.1
2019-Aug-22 18:24 306 3 gusting 6 31.1
2019-Aug-22 18:19 213 31.1
2019-Aug-22 18:14 321 2 gusting 6 31.1
2019-Aug-22 18:09 029 1 gusting 11 31.1
2019-Aug-22 18:04 338 7 gusting 11 31.1
2019-Aug-22 17:59 223 1 gusting 7 31.1
2019-Aug-22 17:54 341 3 gusting 7 31.1
2019-Aug-22 17:49 007 1 gusting 7 31.1
2019-Aug-22 17:44 238 3 gusting 7 31.1
2019-Aug-22 17:38 354 2 gusting 9 31.1
2019-Aug-22 17:33 325 1 gusting 9 31.1
2019-Aug-22 17:28 348 0 gusting 7 31.1
2019-Aug-22 17:23 332 1 gusting 5 31.1
2019-Aug-22 17:18 017 0 gusting 5 31.1
2019-Aug-22 17:13 216 0 gusting 5 31.1
2019-Aug-22 17:08 323 2 gusting 5 31.1
2019-Aug-22 17:03 206 0 gusting 6 30.6
2019-Aug-22 16:58 198 1 gusting 6 30.6
2019-Aug-22 16:53 348 1 gusting 3 30.0
2019-Aug-22 16:48 277 1 gusting 3 30.0
2019-Aug-22 16:42 224 30.0
2019-Aug-22 16:37 162 0 gusting 3 29.4
2019-Aug-22 16:32 192 0 gusting 6 29.4
2019-Aug-22 16:27 294 30.0
2019-Aug-22 16:22 133 30.0
2019-Aug-22 16:17 224 30.0
2019-Aug-22 16:12 192 0 gusting 2 30.6
2019-Aug-22 16:07 233 0 gusting 3 30.0
2019-Aug-22 16:02 186 30.0
2019-Aug-22 15:57 159 2 gusting 3 30.0
2019-Aug-22 15:51 287 2 gusting 5 30.0
2019-Aug-22 15:46 216 2 gusting 5 29.4
2019-Aug-22 15:41 213 29.4
2019-Aug-22 15:36 255 1 gusting 5 28.9
2019-Aug-22 15:31 211 1 gusting 3 28.9
2019-Aug-22 15:26 173 1 gusting 3 28.9
2019-Aug-22 15:21 208 0 gusting 3 28.9
2019-Aug-22 15:16 177 28.9
2019-Aug-22 15:11 173 1 gusting 2 28.9
2019-Aug-22 15:06 356 28.9
2019-Aug-22 15:01 274 28.9
2019-Aug-22 14:55 151 28.3
2019-Aug-22 14:50 203 0 gusting 5 28.3
2019-Aug-22 14:45 284 0 gusting 3 28.3
2019-Aug-22 14:40 182 27.8
2019-Aug-22 14:35 207 0 gusting 2 27.8
2019-Aug-22 14:30 229 27.8
2019-Aug-22 14:25 168 0 gusting 3 27.8
2019-Aug-22 14:20 129 27.8
2019-Aug-22 14:15 265 1 gusting 2 27.2
2019-Aug-22 14:10 232 0 gusting 2 27.2
2019-Aug-22 14:04 210 0 gusting 2 27.2
2019-Aug-22 13:59 227 0 gusting 2 27.2
2019-Aug-22 13:54 189 26.7
2019-Aug-22 13:49 212 26.7
2019-Aug-22 13:44 214 26.1
2019-Aug-22 13:39 213 25.6
2019-Aug-22 13:34 245 25.0
2019-Aug-22 13:29 264 24.4
2019-Aug-22 13:24 238 24.4
2019-Aug-22 13:19 200 24.4
2019-Aug-22 13:13 196 24.4
2019-Aug-22 13:08 233 24.4
2019-Aug-22 13:03 234 23.9
2019-Aug-22 12:58 234 23.9
2019-Aug-22 12:53 233 0 gusting 1 23.9
2019-Aug-22 12:48 202 23.9
2019-Aug-22 12:43 208 23.9
2019-Aug-22 12:38 214 23.9
2019-Aug-22 12:33 216 23.9
2019-Aug-22 12:28 172 23.3
2019-Aug-22 12:23 191 0 gusting 2 23.3
2019-Aug-22 12:17 189 23.3
2019-Aug-22 12:12 214 23.3
2019-Aug-22 12:07 214 22.8
2019-Aug-22 12:02 214 22.8
2019-Aug-22 11:57 214 22.8
2019-Aug-22 11:52 214 22.2
2019-Aug-22 11:47 214 22.2
2019-Aug-22 11:42 214 22.2
2019-Aug-22 11:37 214 22.2
2019-Aug-22 11:32 214 22.2
2019-Aug-22 11:26 214 22.2
2019-Aug-22 11:21 214 21.7
2019-Aug-22 11:16 214 21.7
2019-Aug-22 11:11 214 21.7
2019-Aug-22 11:06 214 21.7
2019-Aug-22 11:01 214 21.7
2019-Aug-22 10:56 214 21.1
2019-Aug-22 10:51 214 21.1
2019-Aug-22 10:46 214 21.1
2019-Aug-22 10:41 214 21.1
2019-Aug-22 10:35 214 21.1
2019-Aug-22 10:30 214 21.1
2019-Aug-22 10:25 214 21.1
2019-Aug-22 10:20 214 21.1
2019-Aug-22 10:15 214 21.1
2019-Aug-22 10:10 214 21.1
2019-Aug-22 10:05 214 21.1
2019-Aug-22 10:00 214 21.1
2019-Aug-22 09:55 214 21.1
2019-Aug-22 09:50 214 21.1
2019-Aug-22 09:45 214 21.1
2019-Aug-22 09:39 214 21.1
2019-Aug-22 09:34 214 21.7
2019-Aug-22 09:29 214 21.7
2019-Aug-22 09:24 214 21.7
2019-Aug-22 09:19 214 21.7
2019-Aug-22 09:14 214 21.7
2019-Aug-22 09:09 214 21.7
2019-Aug-22 09:04 214 21.7
2019-Aug-22 08:59 214 21.7
2019-Aug-22 08:54 214 21.7
2019-Aug-22 08:48 214 21.7
2019-Aug-22 08:43 214 21.7
2019-Aug-22 08:38 214 21.7
2019-Aug-22 08:33 214 21.7
2019-Aug-22 08:28 214 22.2
2019-Aug-22 08:23 214 22.2
2019-Aug-22 08:18 214 22.2
2019-Aug-22 08:13 214 22.2
2019-Aug-22 08:08 214 22.2
2019-Aug-22 08:03 214 22.2
2019-Aug-22 07:58 214 22.2
2019-Aug-22 07:52 211 22.2
2019-Aug-22 07:47 211 22.2
2019-Aug-22 07:42 211 22.2
2019-Aug-22 07:37 211 22.2
2019-Aug-22 07:32 211 22.2
2019-Aug-22 07:27 211 22.2
2019-Aug-22 07:22 211 22.2
2019-Aug-22 07:17 215 0 gusting 0 22.2
2019-Aug-22 07:12 194 22.2
2019-Aug-22 07:07 194 22.2
2019-Aug-22 07:01 193 22.2
2019-Aug-22 06:56 226 0 gusting 1 22.2
2019-Aug-22 06:51 212 22.2
2019-Aug-22 06:46 222 22.2
2019-Aug-22 06:41 212 0 gusting 2 22.2
2019-Aug-22 06:36 180 0 gusting 2 22.2
2019-Aug-22 06:31 222 1 gusting 2 22.2
2019-Aug-22 06:26 194 0 gusting 2 22.2
2019-Aug-22 06:21 198 1 gusting 1 22.2
2019-Aug-22 06:16 203 22.2
2019-Aug-22 06:11 204 22.2
2019-Aug-22 06:05 203 22.2
2019-Aug-22 06:00 197 0 gusting 2 22.2
2019-Aug-22 05:55 194 22.2
2019-Aug-22 05:50 194 22.2
2019-Aug-22 05:45 181 22.2
2019-Aug-22 05:40 183 0 gusting 1 22.2
2019-Aug-22 05:35 172 22.2
2019-Aug-22 05:30 172 22.2
2019-Aug-22 05:25 200 0 gusting 1 22.2
2019-Aug-22 05:20 159 22.2
2019-Aug-22 05:14 231 22.2
2019-Aug-22 05:09 228 22.2
2019-Aug-22 05:04 222 0 gusting 6 22.2
2019-Aug-22 04:59 205 22.2
2019-Aug-22 04:54 197 1 gusting 5 22.2
2019-Aug-22 04:49 219 22.2
2019-Aug-22 04:44 216 22.2
2019-Aug-22 04:39 202 22.2
2019-Aug-22 04:34 281 0 gusting 0 21.7
2019-Aug-22 04:29 178 21.7
2019-Aug-22 04:24 217 21.7
2019-Aug-22 04:18 231 21.7
2019-Aug-22 04:13 176 21.7
2019-Aug-22 04:08 160 21.7
2019-Aug-22 04:03 215 21.7
2019-Aug-22 03:58 196 21.7
2019-Aug-22 03:53 172 21.7
2019-Aug-22 03:48 207 21.7
2019-Aug-22 03:43 189 21.7
2019-Aug-22 03:38 171 21.7
2019-Aug-22 03:33 209 21.7
2019-Aug-22 03:27 195 1 gusting 2 21.7
2019-Aug-22 03:22 215 21.7
2019-Aug-22 03:17 187 21.7
2019-Aug-22 03:12 211 21.7
2019-Aug-22 03:07 185 0 gusting 5 21.7
2019-Aug-22 03:02 217 21.7
2019-Aug-22 02:57 270 1 gusting 7 21.7
2019-Aug-22 02:52 262 2 gusting 7 22.2
2019-Aug-22 02:47 216 22.8
2019-Aug-22 02:42 214 1 gusting 6 23.3
2019-Aug-22 02:37 154 0 gusting 3 23.9
2019-Aug-22 02:31 126 2 gusting 3 24.4
2019-Aug-22 02:26 235 24.4
2019-Aug-22 02:21 047 5 gusting 19 25.0
2019-Aug-22 02:16 287 3 gusting 13 25.0
2019-Aug-22 02:11 003 6 gusting 8 25.0
2019-Aug-22 02:06 199 25.0
2019-Aug-22 02:01 294 3 gusting 6 25.0
2019-Aug-22 01:56 282 2 gusting 6 25.0
2019-Aug-22 01:51 191 1 gusting 6 25.0
2019-Aug-22 01:46 206 1 gusting 6 25.0
2019-Aug-22 01:40 206 25.0
2019-Aug-22 01:35 193 2 gusting 6 25.0
2019-Aug-22 01:30 217 25.0
2019-Aug-22 01:25 162 25.0
2019-Aug-22 01:20 185 1 gusting 6 25.0
2019-Aug-22 01:15 218 1 gusting 6 25.0
2019-Aug-22 01:10 336 3 gusting 6 24.4
2019-Aug-22 01:05 232 2 gusting 2 24.4
2019-Aug-22 01:00 208 1 gusting 2 24.4
2019-Aug-22 00:55 234 24.4
2019-Aug-22 00:49 231 24.4
2019-Aug-22 00:44 231 24.4
2019-Aug-22 00:39 231 24.4
2019-Aug-22 00:34 231 24.4
2019-Aug-22 00:29 230 24.4
2019-Aug-22 00:24 210 0 gusting 2 24.4
2019-Aug-22 00:19 227 0 gusting 6 24.4
2019-Aug-22 00:14 211 0 gusting 6 24.4
2019-Aug-22 00:09 225 24.4
2019-Aug-22 00:04 194 1 gusting 3 25.0
2019-Aug-21 23:59 202 0 gusting 2 25.0
2019-Aug-21 23:53 196 25.0
2019-Aug-21 23:48 213 1 gusting 3 25.0
2019-Aug-21 23:43 215 0 gusting 3 25.0
2019-Aug-21 23:38 226 0 gusting 7 25.0
2019-Aug-21 23:33 235 3 gusting 7 25.0
2019-Aug-21 23:28 159 1 gusting 6 25.0
2019-Aug-21 23:23 226 0 gusting 5 25.0
2019-Aug-21 23:18 241 0 gusting 5 25.0
2019-Aug-21 23:13 254 0 gusting 7 25.0
2019-Aug-21 23:08 164 0 gusting 7 25.0
2019-Aug-21 23:02 212 25.0
2019-Aug-21 22:57 203 25.0
2019-Aug-21 22:52 190 25.0
2019-Aug-21 22:47 191 0 gusting 6 25.0
2019-Aug-21 22:42 228 1 gusting 5 25.0
2019-Aug-21 22:37 234 2 gusting 5 25.0
2019-Aug-21 22:32 109 0 gusting 5 25.0
2019-Aug-21 22:27 183 0 gusting 7 25.0
2019-Aug-21 22:22 25.0
2019-Aug-21 22:17 180 2 gusting 5 25.0
2019-Aug-21 22:11 180 0 gusting 5 25.0
2019-Aug-21 22:06 180 0 gusting 2 25.0
2019-Aug-21 22:01 199 0 gusting 3 25.0